�����͌���@�\�w���ɂ��Y���u�C�̈ړ���(�\�w��),,,,,,,,
�@,Time,Lat.,,Long.,,Direction,Speed,
Date(yy/mm/dd),(hh:mm),(deg),(min),(deg),(min),(deg),(m/s),(knots)
2005/2/28,9:25,36,47.730 ,137,4.158 ,,,
2005/2/28,9:30,36,47.766 ,137,4.194 ,48.4 ,0.30 ,0.58 
2005/2/28,9:35,36,47.802 ,137,4.206 ,20.6 ,0.21 ,0.41 
2005/2/28,9:40,36,47.832 ,137,4.212 ,13.0 ,0.16 ,0.32 
2005/2/28,9:45,36,47.874 ,137,4.212 ,0.0 ,0.23 ,0.46 
2005/2/28,9:50,36,47.892 ,137,4.224 ,40.7 ,0.11 ,0.22 
2005/2/28,9:55,36,47.934 ,137,4.236 ,17.5 ,0.25 ,0.48 
2005/2/28,10:00,36,47.964 ,137,4.236 ,0.0 ,0.16 ,0.31 
2005/2/28,10:05,36,47.988 ,137,4.254 ,42.0 ,0.17 ,0.32 
2005/2/28,10:10,36,48.018 ,137,4.260 ,13.0 ,0.16 ,0.32 
2005/2/28,10:15,36,48.048 ,137,4.266 ,358.4 ,0.14 ,0.28 
2005/2/28,10:20,36,48.072 ,137,4.278 ,17.1 ,0.11 ,0.22 
2005/2/28,10:25,36,48.102 ,137,4.284 ,358.4 ,0.14 ,0.28 
2005/2/28,10:30,36,48.114 ,137,4.290 ,353.1 ,0.03 ,0.06 
2005/2/28,10:35,36,48.138 ,137,4.284 ,330.8 ,0.14 ,0.26 
2005/2/28,10:40,36,48.174 ,137,4.278 ,341.0 ,0.20 ,0.40 
2005/2/28,10:45,36,48.198 ,137,4.266 ,328.5 ,0.17 ,0.34 
2005/2/28,10:50,36,48.240 ,137,4.242 ,327.6 ,0.31 ,0.60 
2005/2/28,10:55,36,48.264 ,137,4.224 ,316.0 ,0.16 ,0.31 
2005/2/28,11:00,36,48.300 ,137,4.200 ,321.9 ,0.24 ,0.47 
2005/2/28,11:05,36,48.324 ,137,4.158 ,291.0 ,0.32 ,0.61 
2005/2/28,11:10,36,48.360 ,137,4.134 ,315.6 ,0.26 ,0.51 
2005/2/28,11:20,36,48.420 ,137,4.062 ,298.7 ,0.30 ,0.58 
2005/2/28,11:25,36,48.450 ,137,4.008 ,291.1 ,0.40 ,0.78 
2005/2/28,11:30,36,48.480 ,137,3.984 ,307.3 ,0.24 ,0.46 
2005/2/28,11:35,36,48.498 ,137,3.936 ,281.7 ,0.34 ,0.67 
2005/2/28,11:40,36,48.540 ,137,3.912 ,322.3 ,0.29 ,0.56 
2005/2/28,11:45,36,48.570 ,137,3.876 ,301.8 ,0.30 ,0.58 
2005/2/28,11:50,36,48.606 ,137,3.828 ,300.6 ,0.38 ,0.74 
,,,,,,,,
,,,,,,,,
�A,Time,Lat.,,Long.,,Direction,Speed,
Date(yy/mm/dd),(hh:mm),(deg),(min),(deg),(min),(deg),(m/s),(knots)
2005/2/28,12:05,36,47.814 ,137,4.176 ,,,
2005/2/28,12:10,36,47.844 ,137,4.194 ,27.7 ,0.18 ,0.34 
2005/2/28,12:15,36,47.856 ,137,4.194 ,326.8 ,0.05 ,0.10 
2005/2/28,12:20,36,47.880 ,137,4.212 ,34.5 ,0.14 ,0.28 
2005/2/28,12:25,36,47.904 ,137,4.218 ,3.7 ,0.12 ,0.23 
2005/2/28,12:30,36,47.934 ,137,4.224 ,2.8 ,0.16 ,0.30 
2005/2/28,12:35,36,47.940 ,137,4.236 ,99.8 ,0.10 ,0.19 
2005/2/28,12:40,36,47.970 ,137,4.254 ,45.4 ,0.19 ,0.36 
2005/2/28,12:45,36,48.012 ,137,4.260 ,16.1 ,0.21 ,0.42 
2005/2/28,12:50,36,48.042 ,137,4.260 ,9.6 ,0.13 ,0.26 
2005/2/28,12:55,36,48.054 ,137,4.266 ,66.6 ,0.04 ,0.08 
2005/2/28,13:05,36,48.108 ,137,4.260 ,350.3 ,0.11 ,0.21 
2005/2/28,13:10,36,48.168 ,137,4.254 ,353.2 ,0.31 ,0.61 
2005/2/28,13:15,36,48.186 ,137,4.242 ,309.6 ,0.10 ,0.19 
2005/2/28,13:20,36,48.210 ,137,4.236 ,339.4 ,0.11 ,0.20 
2005/2/28,13:30,36,48.276 ,137,4.200 ,325.3 ,0.39 ,0.76 
2005/2/28,13:35,36,48.276 ,137,4.182 ,245.9 ,0.12 ,0.24 
2005/2/28,13:40,36,48.300 ,137,4.152 ,298.0 ,0.21 ,0.41 
2005/2/28,13:45,36,48.330 ,137,4.110 ,300.4 ,0.30 ,0.58 
2005/2/28,13:50,36,48.360 ,137,4.074 ,304.4 ,0.27 ,0.52 
2005/2/28,13:55,36,48.390 ,137,4.032 ,300.4 ,0.30 ,0.58 
2005/2/28,14:00,36,48.420 ,137,4.008 ,315.7 ,0.21 ,0.41 
2005/2/28,14:05,36,48.468 ,137,3.990 ,337.1 ,0.29 ,0.56 
2005/2/28,14:10,36,48.480 ,137,3.948 ,279.0 ,0.26 ,0.51 
2005/2/28,14:15,36,48.510 ,137,3.912 ,304.4 ,0.27 ,0.52 
2005/2/28,14:20,36,48.552 ,137,3.894 ,333.8 ,0.25 ,0.49 
2005/2/28,14:25,36,48.582 ,137,3.864 ,309.4 ,0.24 ,0.47 
2005/2/28,14:30,36,48.600 ,137,3.822 ,286.7 ,0.27 ,0.53 
,,,,,,,,
,,,,,,,,
�B,Time,Lat.,,Long.,,Direction,Speed,
Date(yy/mm/dd),(hh:mm),(deg),(min),(deg),(min),(deg),(m/s),(knots)
2005/2/28,9:25,36,47.706 ,137,4.266 ,,,
2005/2/28,9:30,36,47.736 ,137,4.314 ,61.6 ,0.34 ,0.65 
2005/2/28,9:35,36,47.742 ,137,4.356 ,87.3 ,0.26 ,0.50 
2005/2/28,9:40,36,47.748 ,137,4.404 ,87.6 ,0.30 ,0.58 
2005/2/28,9:45,36,47.772 ,137,4.434 ,56.3 ,0.22 ,0.43 
2005/2/28,9:50,36,47.784 ,137,4.464 ,75.1 ,0.19 ,0.37 
2005/2/28,9:55,36,47.814 ,137,4.482 ,34.7 ,0.20 ,0.38 
2005/2/28,10:00,36,47.826 ,137,4.506 ,71.6 ,0.16 ,0.30 
2005/2/28,10:05,36,47.856 ,137,4.530 ,42.7 ,0.22 ,0.42 
2005/2/28,10:10,36,47.874 ,137,4.554 ,59.8 ,0.17 ,0.33 
2005/2/28,10:15,36,47.874 ,137,4.584 ,105.9 ,0.15 ,0.29 
2005/2/28,10:20,36,47.910 ,137,4.596 ,10.3 ,0.18 ,0.36 
2005/2/28,10:25,36,47.934 ,137,4.608 ,17.1 ,0.11 ,0.22 
2005/2/28,10:30,36,47.970 ,137,4.644 ,45.0 ,0.26 ,0.50 
2005/2/28,10:35,36,47.982 ,137,4.656 ,45.0 ,0.06 ,0.12 
2005/2/28,10:40,36,48.060 ,137,4.650 ,351.7 ,0.46 ,0.89 
2005/2/28,10:45,36,48.096 ,137,4.680 ,37.2 ,0.28 ,0.54 
2005/2/28,10:55,36,48.096 ,137,4.722 ,104.4 ,0.13 ,0.26 
2005/2/28,11:00,36,48.096 ,137,4.740 ,106.6 ,0.12 ,0.23 
,,,,,,,,
,,,,,,,,
�C,Time,Lat.,,Long.,,Direction,Speed,
Date(yy/mm/dd),(hh:mm),(deg),(min),(deg),(min),(deg),(m/s),(knots)
2005/2/28,12:10,36,47.700 ,137,4.320 ,,,
2005/2/28,12:15,36,47.724 ,137,4.362 ,62.7 ,0.26 ,0.50 
2005/2/28,12:20,36,47.736 ,137,4.404 ,79.0 ,0.23 ,0.46 
2005/2/28,12:25,36,47.754 ,137,4.428 ,55.5 ,0.14 ,0.28 
2005/2/28,12:30,36,47.760 ,137,4.482 ,88.5 ,0.30 ,0.59 
2005/2/28,12:35,36,47.784 ,137,4.494 ,45.5 ,0.13 ,0.26 
2005/2/28,12:40,36,47.790 ,137,4.530 ,93.9 ,0.25 ,0.48 
2005/2/28,12:45,36,47.802 ,137,4.554 ,83.2 ,0.17 ,0.33 
2005/2/28,12:50,36,47.814 ,137,4.584 ,84.4 ,0.21 ,0.41 
2005/2/28,12:55,36,47.832 ,137,4.590 ,34.9 ,0.06 ,0.13 
2005/2/28,13:00,36,47.856 ,137,4.614 ,58.7 ,0.17 ,0.34 
2005/2/28,13:05,36,47.874 ,137,4.638 ,70.3 ,0.16 ,0.31 
2005/2/28,13:10,36,47.886 ,137,4.680 ,86.5 ,0.26 ,0.50 
2005/2/28,13:15,36,47.910 ,137,4.680 ,0.0 ,0.10 ,0.19 
2005/2/28,13:20,36,47.928 ,137,4.698 ,61.1 ,0.13 ,0.25 
2005/2/28,13:25,36,47.940 ,137,4.728 ,82.5 ,0.19 ,0.36 
2005/2/28,13:30,36,47.964 ,137,4.728 ,0.0 ,0.10 ,0.19 
2005/2/28,13:35,36,47.994 ,137,4.758 ,53.8 ,0.23 ,0.45 
2005/2/28,13:45,36,48.048 ,137,4.776 ,22.6 ,0.14 ,0.28 
2005/2/28,13:55,36,48.060 ,137,4.842 ,88.9 ,0.20 ,0.40 
2005/2/28,14:00,36,48.084 ,137,4.842 ,0.0 ,0.11 ,0.22 
2005/2/28,14:05,36,48.090 ,137,4.866 ,88.5 ,0.15 ,0.29 
2005/2/28,14:10,36,48.114 ,137,4.884 ,44.0 ,0.16 ,0.31 
2005/2/28,14:15,36,48.138 ,137,4.902 ,44.0 ,0.16 ,0.31 
2005/2/28,14:20,36,48.162 ,137,4.920 ,44.0 ,0.16 ,0.31 
2005/2/28,14:25,36,48.186 ,137,4.938 ,44.0 ,0.16 ,0.31 
2005/2/28,14:30,36,48.222 ,137,4.950 ,21.4 ,0.20 ,0.39 
